CZ-6A DEB, 60816

Orbit data source: Space-Track

CZ-6A DEB, 60816 is space debris in LEO originally from a launch on Tue, 06 Aug 2024 UTC launched from the Taiyaun Space Center, China (TSC). Debris objects in space refer to the collection of defunct objects orbiting the Earth. Examples of debris include non-operational satellites, rocket bodies, and fragments generated from explosions, collisions, or faulty payload assembly.

Loading next visibility...
Identifier
60816, 2024-140GT
Orbit
LEO
Country
Flag of CNCN / PRC
Related business
Manufacturer
SAST
Mission
Spacecraft
Bus & Motor
Unknown
Mass
Unknown
Launch date (UTC)
2024-08-06 (2 years ago)
Launch vehicle
Unknown
Launch site
Taiyaun Space Center, China (TSC)
Object type
Payload
Rocket body
Debris
Shape & HBR
Unknown shape, 0.1 m
Radar Cross Section
Medium (>0.1 m² and <1 m²)

Expand to show TLE details & history
Last TLE update: 14 hours ago

TLE from 14 hours ago
0 CZ-6A DEB
1 60816U 24140GT  26171.28499072  .00003036  00000-0  11414-2 0  9995
2 60816  89.0458 276.7446 0015394 179.2750 180.8472 14.31274463 96668
Epoch: 2026-06-20T06:50Z
TLE epoch observation values (Epoch: 2026-06-20T06:50:23.198Z)
Latitude
0.00004°
Longitude
-94.35387°
Altitude
801.575 km
Speed
7.447 km/s
True Right ascension
18h 26m 58s
True Declination
0° 00' 00"
Sunlit
Object was in full shadow at epoch
Visualization orbit readout
Latitude
Unknown
Longitude
Unknown
Altitude
Unknown
Speed
Unknown
Apparent Right ascension
Unknown
Apparent Declination
Unknown
Sunlit
N/A
Visualization observer readout
Local Sidereal Time
07:22:02
Azimuth
Unknown
Elevation
Unknown
Doppler factor
Unknown
Orbital elements
Apogee altitude
795.435 km
Perigee altitude
773.383 km
Semi-major axis
7,162.546 km
Eccentricity
0.00154
Inclination
89.0458°
RAAN
276.7446°
Arg. of periapsis
179.275°
True anomaly
180.8446°
Mean anomaly
180.8472°
Eccentric anomaly
180.8459°
Mean motion
3.58049 °/min
Orbital period
100.54 mins
BSTAR
0.0011414
Loading maneuver chart data...
Computing Atmospheric mass density...
Loading historical data...
Loading historical data...
Loading historical data...
Loading historical data...
Loading historical data...
Loading historical data...
Loading historical data...

Documentation

Showing up to 5 results
|